Volver al catálogo

STARLINK-1132

ActivoComunicacionesVLEO
NORAD 45044·PAYLOAD·🇺🇸 United States

Lanzado Jan 29, 2020 desde Cape Canaveral Space Force Station

Loading…

Próximos Pases (próximas 24 horas)

TLE

ActualizadoSource: CelesTrak SupGP

Época: Sep 14, 2026, 21:36 UTC

1 45044C 20006A   26257.90048611  .00112500  00000+0  80688-3 0  2574
2 45044  53.1460  57.6407 0000772 266.6387 249.8259 15.72939669    18

Sigue STARLINK-1132 en tiempo real con AllMySat

Download on the App Store